Hallo Guest
Login
Close
Registration
Close
Sonnenertrag beschäftigt sich in erster Linie mit Photovoltaik und nachhaltigen Energien. Wir unterhalten die Photovoltaik Datenbank in der unsere Nutzer ihre Erträge und Anlagen untereinander vergleiche können. Neu ist der Datenimport über Solarlog und Sunnyreport.
Announcement Announcement
Donate now

Hier sehen Sie die aktuellen Spenden. Wir freuen uns über jeden Beitrag. Nur gemeinsam sind wir stark!

Alle neuen Spenden hier.

Our top sponsors

Most recent donations

All facilities

All facilities

With "all facilities" can you see all photovoltaic facilities that have entered already revenues in the current month. Also other months can be chosen manually. With a click on a column title can you sort and compare the photovoltaic facilities.

 

Duration: 03.2021 until 03.2021

Current sorting by: Efficiency upwards

No. Revenue
in kWh
Efficiency
in kWh/kWp
Parts Postal Code Country start Update Name
-49 0,00 0,00 1 53859 Germany 2014 07.04 02:10 2014Sonne
-48 0,00 0,00 1 8464VS Netherlands 2012 07.04 02:10 44X8464VS
-47 0,00 0,00 1 89431 Germany 2014 07.04 02:10 9,945
-46 0,00 0,00 1 3342GE Netherlands 2013 07.04 02:10 AB27HIA
-45 0,00 0,00 1 28816 Germany 2011 07.04 02:10 ABU Solar
-44 0,00 0,00 1 50354 Germany 2012 07.04 02:10 AnDen4Hoefen
-43 0,00 0,00 2 99192 Germany 2010 10.04 00:30 annekami
-42 0,00 0,00 1 79576 Germany 2011 07.04 02:10 B7
-41 0,00 0,00 1 51688 Germany 2011 10.04 10:25 bew-hw-johannesstift5
-40 0,00 0,00 1 5591 Netherlands 2011 10.04 09:30 Dak
-39 0,00 0,00 1 63636 Germany 2013 07.04 02:10 DEVK Versicherungen
-38 0,00 0,00 1 79576 Germany 2011 07.04 02:10 E7
-37 0,00 0,00 1 99087 Germany 2015 07.03 09:04 EF-OST
-36 0,00 0,00 1 04749 Germany 2011 07.04 02:10 Fasanenweg 2
-35 0,00 0,00 1 56283 Germany 2010 07.04 02:10 ganz_vorn_Hunsr_20
-34 0,00 0,00 1 56283 Germany 2012 07.04 02:10 ganz_vorn_Hunsr_31
-33 0,00 0,00 1 63619 Germany 2011 07.04 02:10 Getränke-Prehler
-32 0,00 0,00 1 10390 France 2011 10.04 03:09 Gridaine
-31 0,00 0,00 1 7540 Austria 2012 07.04 02:10 Hanzl
-30 0,00 0,00 1 1435 Netherlands 2012 07.04 02:10 Happysolar1
-29 0,00 0,00 1 2132KZ Netherlands 2013 07.04 02:10 Happysolar10
-28 0,00 0,00 1 96242 Germany 2006 10.04 09:30 hdb1
-27 0,00 0,00 1 96242 Germany 2012 10.04 09:30 hdb12
-26 0,00 0,00 1 96487 Germany 2013 10.04 03:09 hdb13
-25 0,00 0,00 1 96242 Germany 2018 10.04 03:01 hdb16
-24 0,00 0,00 1 96242 Germany 2007 10.04 09:30 hdb2
-23 0,00 0,00 1 96242 Germany 2007 10.04 09:30 hdb3
-22 0,00 0,00 1 96472 Germany 2008 10.04 09:30 hdb4
-21 0,00 0,00 1 96472 Germany 2008 10.04 09:30 hdb5
-20 0,00 0,00 1 31675 Germany 2015 07.04 02:10 JDS Energie
-19 0,00 0,00 1 6200 Belgium 2011 10.04 03:06 JDVPV
-18 0,00 0,00 1 6579AH Netherlands 2012 07.04 02:10 JorLen
-17 0,00 0,00 1 7274DE Netherlands 2012 07.04 02:10 Kyra
-16 0,00 0,00 1 09212 Germany 2011 07.04 02:10 Landgraf
-15 0,00 0,00 1 38154 Germany 2012 07.04 02:10 México Lindo
-14 0,00 0,00 1 26826 Germany 2007 10.04 03:06 meyer_rheiderland
-13 0,00 0,00 1 26826 Germany 2009 10.04 03:03 meyer_rheiderland2
-12 0,00 0,00 1 3293 Switzerland 2011 07.04 02:10 MuellerPower
-11 0,00 0,00 1 23730 Germany 2011 07.04 02:10 OTTOSolar
-10 0,00 0,00 1 84419 Germany 2013 07.04 02:10 PV Obertaufkirchen
-9 0,00 0,00 1 27404 Germany 2012 07.04 02:10 PV Rocks
-8 0,00 0,00 1 47447 Germany 2015 10.03. 15:35 PV Web
-7 0,00 0,00 1 6095BL Netherlands 2012 07.04 02:10 PV4700
-6 0,00 0,00 1 77972 Germany 2013 07.04 02:10 PV6860
-5 0,00 0,00 1 77972 Germany 2012 07.04 02:10 pv888833
-4 0,00 0,00 1 4556 Switzerland 2011 07.04 02:10 pva-aeschi
-3 0,00 0,00 1 4221 Austria 2013 07.04 02:10 PVA-Schmalzer
-2 0,00 0,00 1 33102 Germany 2012 07.04 02:10 PVAltmiks
-1 0,00 0,00 1 94078 Germany 2012 07.04 02:10 PVKreuzberg3
0 0,00 0,00 1 66780 Germany 2012 07.04 02:10 PV_Alex